[[{"header":{"parameterUnit":"m.s-1","parameterCategory":2,"la1":30.2991,"la2":30.254,"lo1":-89.0895,"lo2":-89.0444,"dy":0.0017,"dx":0.0017,"nx":28,"ny":28,"refTime":"2024-07-14T21:00:00:Z","depth":"0","parameterNumber":2,"parameterNumberName":"U-component_of_CURRENTS"},"data":[0,0,0,0,0,0,0,0,0,0,0,0,0,0,0,0,0,0,0,0,0,0,0,0,0,0,0,0,0,0,0,0,0,0,0,0,0,0,0,0,0,0,0,0,0,0,0,0,0,0,0,0,0,0,0,0,0,0,0.0744,0.0744,0,0.0758,0.0758,0.0759,0.0738,0.0737,0.0736,0.0736,0.0735,0.0735,0.0736,0,0,0,0,0,0,0,0,0,0,0,0,0,0.0734,0.0734,0.0744,0.0744,0.0744,0.0758,0.0758,0.0759,0.0738,0.0737,0.0736,0.0735,0.0734,0.0735,0.0736,0,0,0,0,0,0,0,0,0,0,0,0,0,0.0742,0.0734,0.0744,0.0736,0.0735,0.0758,0.0758,0.0759,0.0738,0.0737,0.0736,0.0735,0.0734,0.0735,0.0736,0.0765,0,0,0.0739,0.074,0,0,0,0,0,0,0,0,0.0742,0.0743,0.0737,0.0736,0.0736,0.0745,0.0754,0.076,0.0739,0.0737,0.0736,0.0734,0.0737,0.0738,0.0744,0.0765,0.0765,0.0739,0.074,0.074,0.0741,0,0,0,0,0,0,0,0.0741,0.0742,0.075,0.0737,0.0736,0.0743,0.0743,0.0756,0.0743,0.0737,0.0736,0.0737,0.0737,0.0743,0.0744,0.0765,0.0739,0.074,0.0741,0.0741,0.0853,0.0856,0,0,0,0,0,0,0.0739,0.0742,0.0749,0.075,0.0736,0.0744,0.0744,0.0743,0.0744,0.0743,0.0738,0.0736,0.0742,0.0742,0.0743,0.0829,0.074,0.0741,0.0742,0.0851,0.0854,0.0856,0,0,0,0,0,0,0.0738,0.0739,0.0749,0.0746,0.0748,0.0745,0.0745,0.0744,0.0753,0.0744,0.0743,0.0748,0.0741,0.0742,0.078,0.0826,0.0742,0.0743,0.0848,0.0852,0.0855,0.0966,0,0,0,0,0,0,0.0738,0.0739,0.0743,0.0746,0.0748,0.0777,0.0746,0.0745,0.0755,0.0753,0.0753,0.0751,0.074,0.0779,0.0781,0.0826,0.0744,0.0845,0.085,0.0854,0.096,0.0973,0.0985,0,0,0,0,0,0.0738,0.0751,0.0744,0.0745,0.0752,0.0778,0.0781,0.0775,0.0757,0.0776,0.0782,0.0751,0.0808,0.0782,0.0784,0.083,0.0843,0.0849,0.0854,0.0954,0.0971,0.0985,0,0,0,0,0,0,0.0754,0.0751,0.0742,0.0755,0.077,0.0775,0.0791,0.0784,0.0803,0.0801,0.0784,0.0786,0.0837,0.082,0.0791,0.0876,0.082,0.0826,0.0895,0.0911,0.0923,0.0927,0.0744,0,0,0,0,0,0.0759,0.0767,0.0769,0.0784,0.0792,0.0792,0.0802,0.0801,0.0814,0.082,0.0822,0.0832,0.0862,0.0874,0.0891,0.0938,0.0949,0.0968,0.098,0.0991,0.0997,0.106,0.1079,0.0874,0.0874,0.0874,0,0,0.077,0.077,0.0774,0.0788,0.0797,0.0828,0.0796,0.0821,0.0854,0.0819,0.0868,0.0877,0.0885,0.0944,0.0964,0.0934,0.1063,0.0998,0.1007,0.1007,0.1067,0.1087,0.1105,0.0878,0.0877,0.0876,0,0,0.0806,0.0798,0.0819,0.0835,0.0854,0.0861,0.0871,0.0886,0.09,0.0947,0.094,0.098,0.1008,0.1036,0.1051,0.1143,0.1129,0.1144,0.1211,0.1273,0.1291,0.1306,0.1377,0.1398,0.1148,0.1149,0.1149,0,0.082,0.0843,0.0835,0.0865,0.0885,0.0879,0.0919,0.0942,0.0971,0.0997,0.0975,0.1055,0.1057,0.1145,0.1177,0.1173,0.1206,0.1153,0.1291,0.1306,0.1319,0.1388,0.141,0.1155,0.1154,0.1153,0.1153,0,0.0873,0.0894,0.0914,0.0946,0.0972,0.1006,0.1031,0.1065,0.1075,0.1094,0.1174,0.1192,0.1237,0.1252,0.1242,0.1348,0.1342,0.1302,0.1252,0.1347,0.1414,0.1434,0.1163,0.1161,0.1159,0.1158,0,0,0.0902,0.0941,0.0948,0.0974,0.1015,0.1042,0.1109,0.1168,0.1218,0.125,0.1324,0.1382,0.1383,0.14,0.1404,0.1454,0.1588,0.1423,0.1424,0.1495,0.1746,0.1837,0.1867,0.1575,0.1578,0.1581,0.1765,0,0.0949,0.1007,0.1021,0.1093,0.1128,0.1151,0.1213,0.1266,0.1309,0.138,0.1414,0.148,0.1444,0.1478,0.1529,0.1571,0.1641,0.1542,0.1642,0.1646,0.1715,0.1894,0.1992,0.2174,0.1785,0.1788,0.1791,0,0.1002,0.1031,0.1096,0.1162,0.1181,0.1224,0.1318,0.1375,0.1467,0.1502,0.1572,0.1592,0.1691,0.163,0.177,0.1711,0.1744,0.1766,0.1773,0.1828,0.1775,0.201,0.2224,0.2135,0.1821,0.1819,0.1816,0,0.1022,0.109,0.1139,0.116,0.1232,0.1274,0.1321,0.141,0.1474,0.1584,0.1642,0.1739,0.1805,0.1862,0.1919,0.1854,0.2067,0.1978,0.2097,0.2103,0.2193,0.2201,0.2333,0.2085,0.2085,0.2084,0.2084,0,0.1067,0.1109,0.1147,0.1175,0.1247,0.1293,0.1389,0.1448,0.1553,0.1644,0.1703,0.1804,0.1865,0.198,0.1997,0.2154,0.2143,0.2166,0.218,0.2238,0.2248,0.2173,0.2066,0.2091,0.209,0.2088,0.2087,0,0.1087,0.1111,0.1168,0.1233,0.1256,0.1306,0.1409,0.1481,0.1578,0.1705,0.1745,0.1893,0.2067,0.2146,0.2272,0.2286,0.2352,0.2433,0.2511,0.2533,0.254,0.2434,0.243,0.2357,0.2609,0.2612,0.2616,0,0.1101,0.1129,0.1192,0.1217,0.1246,0.1321,0.1378,0.1481,0.1563,0.1761,0.1828,0.2037,0.2187,0.2448,0.2573,0.2711,0.2515,0.283,0.272,0.2621,0.2512,0.228,0.2198,0.289,0.2895,0.2899,0.2903,0,0.1122,0.1137,0.1172,0.1219,0.127,0.1341,0.1428,0.1492,0.1632,0.1748,0.1925,0.2063,0.2399,0.2625,0.2849,0.2932,0.2726,0.2919,0.2806,0.2766,0.2533,0.2444,0.2668,0.294,0.2936,0.2934,0.2932,0.293,0.1121,0.1139,0.1168,0.1214,0.1268,0.1332,0.1376,0.149,0.161,0.178,0.1945,0.2169,0.2566,0.2931,0.3019,0.3225,0.2977,0.3152,0.3045,0.2825,0.2725,0.3046,0.3325,0.3324,0.3322,0.3321,0.332,0,0.1101,0.1116,0.1158,0.1203,0.1237,0.1281,0.1386,0.1431,0.1544,0.1772,0.1937,0.2369,0.2725,0.3034,0.338,0.333,0.3164,0.3237,0.2931,0.2849,0.3188,0.3174,0.3447,0.3447,0.3447,0.3447,0.3447,0.3447,0.1087,0.1099,0.1118,0.1144,0.1174,0.1208,0.1245,0.1339,0.1491,0.175,0.1995,0.222,0.2641,0.309,0.3289,0.3297,0.2971,0.2932,0.2718,0.2973,0.2953,0.2935,0.2899,0.3109,0.3109,0.2368,0.2362,0.2358]},{"header":{"parameterUnit":"m.s-1","parameterCategory":2,"la1":30.2991,"la2":30.254,"lo1":-89.0895,"lo2":-89.0444,"dy":0.0017,"dx":0.0017,"nx":28,"ny":28,"refTime":"2024-07-14T21:00:00:Z","depth":"0","parameterNumber":3,"parameterNumberName":"V-component_of_CURRENTS"},"data":[0,0,0,0,0,0,0,0,0,0,0,0,0,0,0,0,0,0,0,0,0,0,0,0,0,0,0,0,0,0,0,0,0,0,0,0,0,0,0,0,0,0,0,0,0,0,0,0,0,0,0,0,0,0,0,0,0,0,0.0009,0.0009,0,-0.0008,-0.0008,-0.0008,-0.0043,-0.0044,-0.0045,-0.0045,-0.0086,-0.0086,-0.0086,0,0,0,0,0,0,0,0,0,0,0,0,0,-0.0021,-0.002,0.0009,0.0009,0.0009,-0.0008,-0.0008,-0.0008,-0.0043,-0.0044,-0.0045,-0.0046,-0.0085,-0.0086,-0.0086,0,0,0,0,0,0,0,0,0,0,0,0,0,-0.002,-0.0019,0.0009,-0.0011,-0.0013,-0.0008,-0.0008,-0.0008,-0.0043,-0.0044,-0.0045,-0.0046,-0.0085,-0.0086,-0.0086,-0.007,0,0,-0.0088,-0.0089,0,0,0,0,0,0,0,0,-0.002,-0.0019,-0.0008,-0.0009,-0.0012,-0.0024,-0.0033,-0.003,-0.0043,-0.0032,-0.0045,-0.0047,-0.0066,-0.0069,-0.0069,-0.0072,-0.0073,-0.0088,-0.0089,-0.0089,-0.0089,0,0,0,0,0,0,0,-0.002,-0.0018,0.0002,-0.0008,-0.001,-0.0029,-0.003,-0.0033,-0.0044,-0.0033,-0.0035,-0.0037,-0.0068,-0.0069,-0.0071,-0.0074,-0.0088,-0.0089,-0.0089,-0.009,-0.0113,-0.0113,0,0,0,0,0,0,-0.0014,-0.0018,0.0003,0.0002,-0.0018,-0.0028,-0.0029,-0.0019,-0.0043,-0.0048,-0.0036,-0.0038,-0.0067,-0.007,-0.0072,-0.0072,-0.0089,-0.009,-0.009,-0.0113,-0.0113,-0.0113,0,0,0,0,0,0,-0.0014,-0.0012,0.0003,-0.0009,-0.0009,-0.0026,-0.0015,-0.0019,-0.0024,-0.0045,-0.005,-0.0037,-0.0068,-0.0071,-0.0083,-0.0073,-0.009,-0.0091,-0.0113,-0.0113,-0.0113,-0.0059,0,0,0,0,0,0,-0.0015,-0.0011,-0.0004,-0.0008,-0.0008,0.0015,-0.0015,-0.0019,-0.0022,-0.0026,-0.0047,-0.0052,-0.0069,-0.0082,-0.0083,-0.0074,-0.0091,-0.0112,-0.0113,-0.0113,-0.006,-0.0057,-0.0055,0,0,0,0,0,-0.0016,0.0002,-0.0003,-0.0001,0.0004,0.0016,0.0015,-0.0002,-0.0021,-0.0013,-0.004,-0.0052,-0.0086,-0.0082,-0.0084,-0.0075,-0.0112,-0.0113,-0.0113,-0.0062,-0.0058,-0.0055,0,0,0,0,0,0,-0.0007,0.0,-0.0006,0.0013,0.0017,0.001,0.0014,0.0002,-0.0011,-0.002,-0.0047,-0.0053,-0.0063,-0.0078,-0.0073,-0.0087,-0.0103,-0.0104,-0.0064,-0.006,-0.0058,-0.0028,-0.0092,0,0,0,0,0,-0.0,0.0015,0.0018,0.0032,0.0036,0.0025,0.0026,0.0017,0.0005,-0.0002,-0.0018,-0.0043,-0.0065,-0.007,-0.0088,-0.0084,-0.0111,-0.0085,-0.0082,-0.0079,-0.0058,-0.0116,-0.0116,-0.0115,-0.0115,-0.0115,0,0,0.0007,0.0012,0.002,0.0035,0.0033,0.0056,0.0023,0.0031,0.0043,-0.0003,0.0004,-0.0031,-0.0064,-0.0069,-0.0075,-0.0079,-0.0093,-0.008,-0.0077,-0.0057,-0.0117,-0.0117,-0.0117,-0.0115,-0.0115,-0.0115,0,0,0.0035,0.0035,0.006,0.0071,0.0076,0.0074,0.0078,0.0076,0.0068,0.0073,0.0029,0.0002,-0.0013,-0.0039,-0.0055,-0.0046,-0.008,-0.0058,-0.001,-0.0067,-0.0067,-0.0067,-0.0094,-0.0098,-0.0052,-0.0052,-0.0051,0,0.0041,0.0078,0.0068,0.0098,0.0113,0.0087,0.0122,0.0115,0.0107,0.0104,0.0083,0.0035,0.0004,-0.0014,-0.0015,-0.0036,-0.0068,-0.0017,-0.0062,-0.0063,-0.0064,-0.0092,-0.0096,-0.0049,-0.0049,-0.005,-0.005,0,0.0093,0.0122,0.0138,0.0169,0.0183,0.0207,0.0203,0.0204,0.0187,0.0177,0.0155,0.0104,0.0078,0.0054,0.0027,0.0002,-0.0017,-0.0055,-0.0065,-0.0061,-0.0091,-0.0096,-0.0045,-0.0046,-0.0047,-0.0048,0,0,0.0109,0.0165,0.0171,0.0204,0.0225,0.0245,0.0261,0.0274,0.0283,0.0255,0.0262,0.0207,0.017,0.0149,0.0096,0.0051,0.0009,0.0003,-0.0001,-0.0012,-0.0098,-0.01,-0.0106,-0.0045,-0.0046,-0.0046,-0.0112,0,0.0153,0.0229,0.0241,0.031,0.035,0.034,0.0363,0.0365,0.0349,0.0348,0.0282,0.0267,0.0208,0.0189,0.0134,0.004,-0.0004,0.0032,-0.0109,-0.0112,-0.0106,-0.0112,-0.0047,-0.01,-0.0117,-0.0118,-0.0119,0,0.0202,0.0249,0.0328,0.0392,0.0407,0.0438,0.0466,0.0483,0.0464,0.045,0.0414,0.0363,0.0306,0.0244,0.0103,0.0127,0.0029,-0.0049,-0.0055,-0.0074,-0.0124,-0.011,-0.0109,-0.022,-0.0128,-0.0127,-0.0126,0,0.0228,0.0309,0.0376,0.04,0.0462,0.0487,0.0511,0.0512,0.0533,0.0511,0.0519,0.0435,0.0398,0.0265,0.0119,0.0102,-0.0039,-0.0089,-0.0179,-0.018,-0.0157,-0.0155,-0.0268,-0.0193,-0.0193,-0.0192,-0.0192,0,0.0274,0.0328,0.0396,0.0434,0.0509,0.0532,0.059,0.0595,0.0609,0.0644,0.0573,0.0577,0.0397,0.0299,0.015,-0.0014,-0.0019,-0.0159,-0.0199,-0.0136,-0.0131,-0.0254,-0.035,-0.0195,-0.0194,-0.0194,-0.0193,0,0.0298,0.034,0.0425,0.0502,0.0527,0.058,0.0652,0.0692,0.0695,0.0736,0.0735,0.0675,0.0559,0.0384,0.0174,0.0037,-0.0193,-0.0191,-0.0086,-0.0112,-0.0301,-0.0397,-0.0532,-0.0603,-0.0298,-0.0299,-0.0299,0,0.0321,0.037,0.0473,0.0526,0.0565,0.064,0.0694,0.0728,0.0773,0.0801,0.0828,0.0746,0.0711,0.0431,0.0179,-0.0063,-0.0201,-0.0178,-0.0206,-0.0292,-0.0429,-0.0462,-0.0515,-0.0154,-0.0154,-0.0153,-0.0152,0,0.0377,0.0411,0.0483,0.0585,0.0658,0.0745,0.0821,0.0867,0.0909,0.0941,0.0975,0.0957,0.0731,0.0544,0.0227,0.004,-0.024,-0.0173,-0.0299,-0.035,-0.0357,-0.0449,-0.0117,-0.0146,-0.0147,-0.0147,-0.0148,-0.0148,0.0418,0.0479,0.0572,0.0667,0.0749,0.0848,0.0913,0.0988,0.1065,0.1135,0.1107,0.1128,0.0891,0.0481,0.0211,-0.0186,-0.0238,-0.0293,-0.0407,-0.0434,-0.049,-0.0128,-0.0186,-0.0187,-0.0187,-0.0188,-0.0188,0,0.0484,0.0555,0.0651,0.0772,0.0862,0.0892,0.1003,0.1067,0.1158,0.1246,0.1284,0.1239,0.0925,0.056,0.0043,-0.0309,-0.0447,-0.0509,-0.0542,-0.0595,-0.0293,-0.0272,-0.0304,-0.0304,-0.0304,-0.0304,-0.0303,-0.0303,0.0529,0.0635,0.069,0.0854,0.0928,0.1041,0.1102,0.1189,0.1272,0.1397,0.1465,0.1502,0.1286,0.0396,-0.0277,-0.0495,-0.0752,-0.0806,-0.0975,-0.0762,-0.075,-0.0738,-0.0738,-0.0867,-0.0868,-0.1168,-0.1171,-0.1174]}],[{"header":{"parameterUnit":"m.s-1","parameterCategory":2,"la1":30.2991,"la2":30.254,"lo1":-89.0895,"lo2":-89.0444,"dy":0.0017,"dx":0.0017,"nx":28,"ny":28,"refTime":"2024-07-14T21:00:00:Z","depth":"2","parameterNumber":2,"parameterNumberName":"U-component_of_CURRENTS"},"data":[0,0,0,0,0,0,0,0,0,0,0,0,0,0,0,0,0,0,0,0,0,0,0,0,0,0,0,0,0,0,0,0,0,0,0,0,0,0,0,0,0,0,0,0,0,0,0,0,0,0,0,0,0,0,0,0,0,0,0.1426,0.1427,0,0.1478,0.1479,0.1479,0.1499,0.1499,0.1498,0.1498,0.1542,0.1544,0.1545,0,0,0,0,0,0,0,0,0,0,0,0,0,0.1347,0.1348,0.1426,0.1427,0.1427,0.1478,0.1479,0.148,0.1499,0.1499,0.1498,0.1498,0.1542,0.1544,0.1545,0,0,0,0,0,0,0,0,0,0,0,0,0,0.1387,0.1348,0.1426,0.1444,0.1446,0.1478,0.1479,0.148,0.1499,0.1498,0.1498,0.1498,0.1542,0.1543,0.1545,0.1559,0,0,0.1551,0.1552,0,0,0,0,0,0,0,0,0.1385,0.139,0.1441,0.1443,0.1445,0.1483,0.1467,0.1506,0.1499,0.1477,0.1498,0.1498,0.1523,0.1526,0.1535,0.1561,0.1563,0.1551,0.1552,0.1553,0.1553,0,0,0,0,0,0,0,0.1382,0.1388,0.1445,0.1441,0.1444,0.1451,0.1457,0.1475,0.1499,0.1479,0.1481,0.1489,0.1524,0.1533,0.1536,0.1563,0.1551,0.1553,0.1554,0.1555,0.1625,0.1626,0,0,0,0,0,0,0.1378,0.1385,0.1444,0.1447,0.1415,0.1453,0.1459,0.147,0.1499,0.1504,0.1489,0.149,0.153,0.1534,0.1537,0.1578,0.1553,0.1555,0.1556,0.1624,0.1625,0.1626,0,0,0,0,0,0,0.1376,0.1383,0.1442,0.1418,0.1426,0.1454,0.1467,0.1471,0.1475,0.1507,0.1511,0.1488,0.153,0.1535,0.1563,0.1579,0.1556,0.1557,0.1623,0.1625,0.1626,0.1644,0,0,0,0,0,0,0.1374,0.1382,0.1385,0.1418,0.1427,0.1455,0.1467,0.1472,0.1481,0.1482,0.1507,0.1512,0.153,0.156,0.1564,0.1581,0.1559,0.1622,0.1624,0.1625,0.1642,0.1646,0.1648,0,0,0,0,0,0.1371,0.1374,0.1385,0.1392,0.1432,0.1455,0.146,0.1479,0.1481,0.1481,0.1509,0.151,0.1572,0.1562,0.1567,0.1585,0.1622,0.1623,0.1625,0.1641,0.1645,0.1648,0,0,0,0,0,0,0.1335,0.1377,0.139,0.1404,0.1426,0.1458,0.1459,0.1473,0.1495,0.1493,0.1521,0.1528,0.1564,0.1567,0.1556,0.1609,0.1596,0.1599,0.1607,0.1611,0.1613,0.1616,0.156,0,0,0,0,0,0.1331,0.1346,0.1383,0.1392,0.14,0.1428,0.1438,0.1451,0.1477,0.1485,0.1508,0.1535,0.1576,0.1586,0.1616,0.1637,0.1663,0.1651,0.1654,0.1657,0.1662,0.1717,0.1726,0.1632,0.1632,0.1632,0,0,0.1319,0.1344,0.1352,0.1386,0.1401,0.1424,0.1433,0.1443,0.1469,0.1487,0.1518,0.1547,0.1586,0.1624,0.1638,0.1626,0.1699,0.1659,0.1661,0.1665,0.172,0.1729,0.1737,0.1633,0.1633,0.1632,0,0,0.1307,0.1324,0.1335,0.1356,0.1383,0.1406,0.1407,0.1438,0.1455,0.1488,0.1522,0.1561,0.1597,0.1643,0.1669,0.1702,0.1719,0.1702,0.1713,0.1766,0.1775,0.1782,0.1836,0.1848,0.1696,0.1696,0.1696,0,0.1289,0.1319,0.1339,0.1357,0.1379,0.1398,0.1418,0.1442,0.148,0.1507,0.1496,0.1592,0.1614,0.1694,0.1705,0.1711,0.174,0.1697,0.1771,0.1779,0.1786,0.184,0.1853,0.1697,0.1697,0.1697,0.1697,0,0.1296,0.1318,0.1322,0.1362,0.1384,0.1398,0.1439,0.146,0.1479,0.1515,0.1581,0.1621,0.168,0.1693,0.1709,0.178,0.1784,0.1775,0.1762,0.1797,0.1851,0.1865,0.1698,0.1698,0.1698,0.1697,0,0,0.1262,0.1318,0.1319,0.1345,0.1389,0.1409,0.145,0.1506,0.1545,0.1575,0.1637,0.1701,0.1721,0.1752,0.178,0.1816,0.1894,0.181,0.1813,0.1865,0.2016,0.2013,0.2027,0.1895,0.1897,0.1899,0.2036,0,0.1262,0.1301,0.1334,0.1373,0.1399,0.1438,0.1482,0.1533,0.1575,0.1634,0.1687,0.1752,0.1746,0.1778,0.1817,0.1884,0.1929,0.1858,0.1974,0.1977,0.1971,0.2043,0.1665,0.1754,0.2049,0.2051,0.2053,0,0.1263,0.1295,0.1334,0.1399,0.1413,0.1441,0.1518,0.1563,0.1651,0.1683,0.1749,0.1792,0.1878,0.185,0.1979,0.1933,0.1976,0.2012,0.2018,0.2017,0.1999,0.1765,0.1768,0.2076,0.2074,0.2072,0.2071,0,0.1242,0.1297,0.1331,0.1351,0.1424,0.1452,0.1495,0.1577,0.1627,0.1722,0.1766,0.1861,0.1922,0.1987,0.2063,0.2027,0.2194,0.2157,0.22,0.22,0.1904,0.1875,0.2246,0.2246,0.2245,0.2245,0.2244,0,0.124,0.1265,0.1322,0.1341,0.1387,0.1443,0.1504,0.1559,0.1648,0.1717,0.1791,0.1863,0.1956,0.2057,0.2102,0.2209,0.2235,0.2228,0.2244,0.1902,0.1873,0.2161,0.215,0.225,0.2249,0.2248,0.2247,0,0.1212,0.125,0.1289,0.1357,0.1378,0.1411,0.1497,0.1549,0.1632,0.1726,0.176,0.1892,0.2032,0.2132,0.2262,0.2273,0.2363,0.2389,0.1991,0.1959,0.2322,0.2309,0.2456,0.2457,0.2458,0.2459,0.246,0,0.1202,0.1219,0.1283,0.1307,0.1334,0.139,0.1436,0.1527,0.1586,0.1741,0.1789,0.1953,0.2053,0.2258,0.2255,0.2349,0.2443,0.2109,0.198,0.2347,0.2348,0.2334,0.2321,0.1587,0.1581,0.1576,0.1571,0,0.118,0.1198,0.1234,0.1279,0.132,0.1374,0.1445,0.1484,0.1605,0.1687,0.1819,0.191,0.2044,0.1973,0.2095,0.2088,0.2061,0.2012,0.2486,0.1617,0.1546,0.1542,0.1553,0.1524,0.1529,0.1532,0.1535,0.1537,0.1155,0.1169,0.1213,0.1253,0.1299,0.1353,0.1387,0.1468,0.1555,0.1653,0.1765,0.1787,0.1705,0.1723,0.1746,0.1746,0.1878,0.1744,0.1752,0.1767,0.1666,0.1604,0.1574,0.1578,0.1583,0.1586,0.159,0,0.1129,0.1153,0.1188,0.1239,0.1271,0.1312,0.1391,0.141,0.1486,0.1539,0.1625,0.1354,0.1297,0.1326,0.1203,0.1253,0.1166,0.1254,0.1044,0.1085,0.1123,0.0985,0.0715,0.0715,0.0715,0.0715,0,0,0.1118,0.114,0.1161,0.1199,0.1232,0.1271,0.1306,0.1333,0.1348,0.1285,0.1209,0.1246,0.1184,0.092,0.0864,0.0802,0.0974,0.0773,0.1423,0.1207,0.1248,0.1302,0.1124,0,0,0,0,0]},{"header":{"parameterUnit":"m.s-1","parameterCategory":2,"la1":30.2991,"la2":30.254,"lo1":-89.0895,"lo2":-89.0444,"dy":0.0017,"dx":0.0017,"nx":28,"ny":28,"refTime":"2024-07-14T21:00:00:Z","depth":"2","parameterNumber":3,"parameterNumberName":"V-component_of_CURRENTS"},"data":[0,0,0,0,0,0,0,0,0,0,0,0,0,0,0,0,0,0,0,0,0,0,0,0,0,0,0,0,0,0,0,0,0,0,0,0,0,0,0,0,0,0,0,0,0,0,0,0,0,0,0,0,0,0,0,0,0,0,0.0247,0.0247,0,0.0188,0.0187,0.0187,0.0148,0.0147,0.0147,0.0147,0.0043,0.004,0.0038,0,0,0,0,0,0,0,0,0,0,0,0,0,0.0317,0.0316,0.0248,0.0247,0.0246,0.0188,0.0187,0.0186,0.0148,0.0147,0.0147,0.0146,0.0043,0.004,0.0037,0,0,0,0,0,0,0,0,0,0,0,0,0,0.0276,0.0316,0.0248,0.0219,0.0216,0.0188,0.0187,0.0186,0.0148,0.0147,0.0147,0.0146,0.0044,0.0041,0.0037,0.0024,0,0,0.0026,0.0024,0,0,0,0,0,0,0,0,0.0278,0.0273,0.0224,0.0221,0.0217,0.0174,0.0173,0.013,0.0148,0.0175,0.0147,0.0146,0.0082,0.0075,0.0067,0.0019,0.0015,0.0025,0.0023,0.0022,0.0021,0,0,0,0,0,0,0,0.0281,0.0276,0.0225,0.0223,0.0219,0.0205,0.0199,0.0165,0.0132,0.0172,0.0169,0.0161,0.008,0.0071,0.0064,0.0013,0.0026,0.0022,0.002,0.0019,-0.0088,-0.0089,0,0,0,0,0,0,0.0288,0.0278,0.0227,0.0223,0.0246,0.0204,0.0197,0.0189,0.0133,0.0124,0.0161,0.0159,0.0077,0.0069,0.006,0.0025,0.0022,0.0018,0.0016,-0.0087,-0.0088,-0.0089,0,0,0,0,0,0,0.0289,0.0284,0.0229,0.0249,0.0241,0.0203,0.0194,0.0188,0.0174,0.0125,0.0115,0.0153,0.0077,0.0066,0.0031,0.0021,0.0017,0.0013,-0.0087,-0.0088,-0.0088,-0.0035,0,0,0,0,0,0,0.0292,0.0285,0.0281,0.0249,0.024,0.0212,0.0195,0.0187,0.0169,0.0166,0.0115,0.0105,0.0075,0.0037,0.0028,0.0016,0.001,-0.0086,-0.0087,-0.0088,-0.0036,-0.0034,-0.0032,0,0,0,0,0,0.0294,0.0288,0.0281,0.0275,0.0236,0.0212,0.0206,0.0179,0.0169,0.0164,0.0133,0.0106,0.0022,0.0034,0.0023,0.001,-0.0085,-0.0087,-0.0088,-0.0037,-0.0034,-0.0032,0,0,0,0,0,0,0.0311,0.0282,0.0274,0.0259,0.0239,0.0205,0.0194,0.018,0.0153,0.0146,0.0105,0.0094,0.006,0.0026,0.004,-0.0026,-0.0039,-0.0043,0.0003,0.0005,0.0007,0.0016,0.0007,0,0,0,0,0,0.0315,0.0305,0.0278,0.0265,0.0256,0.0227,0.0214,0.0197,0.0168,0.0155,0.0122,0.008,0.0046,0.002,-0.0013,-0.0048,-0.0081,-0.0067,-0.0065,-0.0063,-0.0066,-0.0118,-0.0121,-0.0093,-0.0093,-0.0093,0,0,0.0317,0.03,0.0293,0.0268,0.0249,0.0235,0.0218,0.0197,0.0185,0.0147,0.0119,0.0091,0.0041,0.0007,-0.0013,-0.0025,-0.0088,-0.0065,-0.0063,-0.0066,-0.012,-0.0123,-0.0125,-0.0094,-0.0094,-0.0094,0,0,0.0312,0.0301,0.029,0.0278,0.0252,0.0238,0.0234,0.0204,0.0189,0.0164,0.0134,0.0104,0.0046,0.0014,-0.0011,-0.0022,-0.0069,-0.0043,-0.0035,-0.0085,-0.0087,-0.009,-0.0125,-0.0131,-0.005,-0.005,-0.005,0,0.031,0.0298,0.0283,0.0271,0.0262,0.0242,0.0232,0.0215,0.0178,0.0167,0.0158,0.0085,0.005,0.0007,0.0003,-0.0017,-0.0052,-0.0033,-0.0081,-0.0084,-0.0088,-0.0124,-0.0131,-0.0048,-0.0048,-0.0048,-0.0049,0,0.0299,0.029,0.0283,0.0265,0.0257,0.0244,0.0225,0.0213,0.0198,0.018,0.0143,0.0102,0.0057,0.004,0.0018,-0.0028,-0.0045,-0.0062,-0.008,-0.0087,-0.0125,-0.0133,-0.0044,-0.0045,-0.0046,-0.0046,0,0,0.028,0.0275,0.0271,0.0272,0.0254,0.0247,0.0233,0.0214,0.0207,0.0173,0.0157,0.0104,0.0086,0.0055,0.0022,-0.0022,-0.0066,-0.0053,-0.0057,-0.0076,-0.0175,-0.0116,-0.012,-0.0096,-0.0098,-0.0099,-0.0187,0,0.027,0.0262,0.0259,0.0254,0.0251,0.0242,0.0235,0.0219,0.0204,0.0187,0.0144,0.0116,0.0089,0.007,0.0023,-0.0039,-0.009,-0.0041,-0.0177,-0.018,-0.0117,-0.0128,-0.0145,-0.0219,-0.0196,-0.0197,-0.0198,0,0.0254,0.0255,0.0251,0.026,0.0257,0.0254,0.0249,0.0241,0.0216,0.0203,0.0169,0.014,0.0083,0.006,-0.0058,-0.0028,-0.0102,-0.0153,-0.0158,-0.0128,-0.0137,-0.0213,-0.0236,-0.0213,-0.0212,-0.0211,-0.021,0,0.0251,0.0248,0.0251,0.0251,0.0255,0.0254,0.0256,0.0242,0.0243,0.0213,0.021,0.0141,0.011,0.001,-0.0077,-0.0082,-0.0202,-0.0225,-0.0245,-0.0242,-0.0295,-0.0293,-0.0326,-0.0326,-0.0326,-0.0326,-0.0326,0,0.0244,0.0245,0.0253,0.0254,0.0265,0.0263,0.0271,0.0264,0.0257,0.0262,0.0219,0.0214,0.0092,0.0022,-0.0075,-0.0168,-0.0207,-0.0243,-0.0262,-0.0274,-0.0269,-0.0298,-0.0294,-0.0329,-0.0328,-0.0328,-0.0327,0,0.0241,0.0242,0.025,0.0258,0.0265,0.0272,0.0292,0.0299,0.029,0.0295,0.0287,0.0252,0.0179,0.0065,-0.0084,-0.0151,-0.0256,-0.0288,-0.0275,-0.0289,-0.0268,-0.026,-0.0327,-0.0326,-0.0324,-0.0323,-0.0323,0,0.0241,0.0242,0.0256,0.027,0.0275,0.0291,0.0306,0.031,0.0323,0.0329,0.0336,0.0285,0.0292,0.0129,-0.0019,-0.0167,-0.0223,-0.0295,-0.03,-0.0257,-0.0269,-0.0263,-0.0257,-0.0363,-0.0363,-0.0363,-0.0362,0,0.0247,0.0247,0.0257,0.028,0.0298,0.0327,0.0349,0.0369,0.0378,0.0413,0.0447,0.0466,0.0338,0.0201,0.0018,-0.0081,-0.0264,-0.0288,-0.0285,-0.0328,-0.029,-0.0301,-0.0295,-0.036,-0.036,-0.036,-0.036,-0.036,0.0251,0.026,0.0272,0.0295,0.0321,0.0363,0.0401,0.0447,0.0508,0.0598,0.0584,0.0596,0.0374,0.0173,0.0006,-0.0188,-0.0175,-0.0297,-0.0301,-0.0304,-0.026,-0.0218,-0.0267,-0.0266,-0.0266,-0.0266,-0.0266,0,0.0254,0.0267,0.0292,0.0323,0.0358,0.037,0.0432,0.0501,0.0608,0.0679,0.0773,0.0539,0.0417,0.0159,-0.0118,-0.0245,-0.0264,-0.0309,-0.0359,-0.036,-0.0362,-0.0323,-0.0346,-0.0347,-0.0347,-0.0347,0,0,0.0259,0.0273,0.0288,0.0348,0.0379,0.0446,0.0493,0.062,0.0679,0.0765,0.0735,0.0798,0.041,0.017,-0.0037,-0.0208,-0.0228,-0.021,-0.0133,-0.0166,-0.0165,-0.0346,-0.0285,0,0,0,0,0]}],[{"header":{"parameterUnit":"m.s-1","parameterCategory":2,"la1":30.2991,"la2":30.254,"lo1":-89.0895,"lo2":-89.0444,"dy":0.0017,"dx":0.0017,"nx":28,"ny":28,"refTime":"2024-07-14T21:00:00:Z","depth":"4","parameterNumber":2,"parameterNumberName":"U-component_of_CURRENTS"},"data":[0,0,0,0,0,0,0,0,0,0,0,0,0,0,0,0,0,0,0,0,0,0,0,0,0,0,0,0,0,0,0,0,0,0,0,0,0,0,0,0,0,0,0,0,0,0,0,0,0,0,0,0,0,0,0,0,0,0,0.0275,0.0275,0,0.0306,0.0306,0.0306,0.0335,0.0336,0.0336,0.0337,0.0311,0.031,0.0309,0,0,0,0,0,0,0,0,0,0,0,0,0,0.0266,0.0266,0.0274,0.0275,0.0276,0.0306,0.0306,0.0306,0.0335,0.0336,0.0336,0.0337,0.0311,0.031,0.0309,0,0,0,0,0,0,0,0,0,0,0,0,0,0.0278,0.0265,0.0274,0.0296,0.0298,0.0306,0.0306,0.0306,0.0335,0.0336,0.0336,0.0337,0.0312,0.031,0.0308,0.0279,0,0,0.0303,0.0302,0,0,0,0,0,0,0,0,0.0277,0.0278,0.0292,0.0294,0.0297,0.032,0.0294,0.0295,0.0334,0.0318,0.0337,0.0338,0.031,0.0308,0.0309,0.0278,0.0277,0.0302,0.0301,0.0301,0.03,0,0,0,0,0,0,0,0.0276,0.0277,0.0284,0.0293,0.0296,0.0313,0.0315,0.0295,0.0305,0.0319,0.0322,0.033,0.0311,0.0311,0.0308,0.0276,0.0303,0.0301,0.03,0.0299,0.0238,0.0237,0,0,0,0,0,0,0.0275,0.0276,0.0283,0.0285,0.0292,0.0313,0.0315,0.0309,0.0307,0.0309,0.0329,0.0331,0.0314,0.0311,0.0308,0.0302,0.0301,0.0299,0.0298,0.0238,0.0238,0.0237,0,0,0,0,0,0,0.0275,0.0275,0.0282,0.0285,0.0287,0.0312,0.0305,0.031,0.0333,0.0315,0.0316,0.0351,0.0314,0.031,0.0302,0.03,0.0298,0.0296,0.0239,0.0238,0.0237,0.0272,0,0,0,0,0,0,0.0274,0.0274,0.0285,0.0284,0.0287,0.03,0.0305,0.031,0.0336,0.0339,0.0333,0.0331,0.0315,0.0305,0.03,0.0298,0.0295,0.024,0.0239,0.0238,0.0272,0.0273,0.0273,0,0,0,0,0,0.0274,0.0285,0.0284,0.0287,0.0294,0.0301,0.0304,0.0324,0.0336,0.0347,0.034,0.0332,0.0295,0.0303,0.0297,0.0295,0.024,0.0239,0.0238,0.0271,0.0272,0.0273,0,0,0,0,0,0,0.0288,0.0289,0.0288,0.03,0.0305,0.0308,0.033,0.0335,0.034,0.0348,0.0329,0.0326,0.0314,0.0298,0.0307,0.0272,0.0264,0.0262,0.0291,0.0292,0.0293,0.0313,0.0293,0,0,0,0,0,0.0293,0.0303,0.03,0.0311,0.0318,0.0325,0.0337,0.0345,0.0344,0.035,0.0344,0.0327,0.03,0.0295,0.0272,0.0257,0.0258,0.0249,0.025,0.0251,0.0261,0.0248,0.0249,0.0233,0.0233,0.0233,0,0,0.0299,0.0306,0.0309,0.0316,0.0326,0.0333,0.0335,0.0357,0.0361,0.0342,0.0355,0.0333,0.0296,0.0278,0.0271,0.0269,0.0259,0.0249,0.0251,0.0261,0.0247,0.0248,0.025,0.0233,0.0233,0.0233,0,0,0.0317,0.0324,0.0337,0.0343,0.0362,0.0361,0.0371,0.0379,0.0385,0.0384,0.0364,0.0348,0.0322,0.0293,0.0272,0.0264,0.0264,0.0254,0.0277,0.0264,0.0266,0.0267,0.0292,0.0296,0.0256,0.0256,0.0256,0,0.0333,0.0338,0.0343,0.0358,0.0369,0.0374,0.0386,0.0386,0.039,0.0388,0.0395,0.0349,0.0326,0.0286,0.0286,0.0267,0.0275,0.0279,0.0267,0.0269,0.0269,0.0295,0.0298,0.0257,0.0257,0.0257,0.0257,0,0.0344,0.0362,0.0375,0.0388,0.0397,0.0413,0.0409,0.0417,0.0425,0.042,0.0401,0.0369,0.0347,0.0325,0.0307,0.029,0.0301,0.0271,0.0271,0.0274,0.03,0.0303,0.0259,0.0259,0.0258,0.0258,0,0,0.0353,0.0377,0.0388,0.0399,0.0415,0.0423,0.0428,0.0427,0.0433,0.0428,0.0428,0.0382,0.0381,0.0357,0.0326,0.0311,0.0332,0.0305,0.0303,0.0343,0.0338,0.0318,0.0319,0.0304,0.0304,0.0304,0.0363,0,0.0367,0.0401,0.0405,0.0433,0.0447,0.0448,0.045,0.045,0.0449,0.0451,0.0416,0.0408,0.0386,0.0384,0.0365,0.0333,0.0338,0.0321,0.0319,0.0319,0.031,0.032,0.0304,0.0365,0.0366,0.0366,0.0367,0,0.0375,0.04,0.0431,0.0454,0.046,0.0475,0.0484,0.0486,0.0477,0.0479,0.0468,0.0453,0.0436,0.0416,0.0391,0.0385,0.0378,0.0355,0.0356,0.0326,0.0303,0.0354,0.0372,0.0372,0.0371,0.0371,0.037,0,0.0375,0.0417,0.0445,0.0454,0.0476,0.049,0.0502,0.0501,0.0503,0.0509,0.0521,0.0494,0.0498,0.0467,0.0437,0.0425,0.0411,0.0383,0.0362,0.0362,0.035,0.0347,0.0377,0.0377,0.0377,0.0376,0.0376,0,0.0375,0.04,0.0455,0.0467,0.0496,0.0511,0.0529,0.0534,0.0544,0.0553,0.0548,0.0532,0.0512,0.0497,0.0461,0.0429,0.0438,0.0379,0.0369,0.0365,0.0363,0.0354,0.035,0.0379,0.0378,0.0378,0.0377,0,0.0353,0.0392,0.0426,0.0475,0.0494,0.0515,0.055,0.0554,0.0581,0.0596,0.0608,0.0586,0.0553,0.053,0.0486,0.047,0.0427,0.0415,0.045,0.0439,0.0391,0.0389,0.0411,0.0411,0.041,0.041,0.041,0,0.0336,0.0354,0.0429,0.0454,0.0479,0.0518,0.0532,0.0565,0.0576,0.0603,0.0602,0.0594,0.0571,0.0487,0.0462,0.0429,0.0405,0.044,0.0385,0.0404,0.0392,0.039,0.0388,0.0409,0.0409,0.0409,0.0409,0,0.0293,0.0333,0.0362,0.0426,0.0464,0.0487,0.0525,0.0519,0.056,0.0618,0.0572,0.0546,0.0508,0.0442,0.0442,0.0399,0.0444,0.0436,0.0436,0.0385,0.0402,0.039,0.0389,0.0408,0.0408,0.0408,0.0408,0,0.026,0.0273,0.033,0.0382,0.0435,0.0439,0.0447,0.0459,0.0471,0.0527,0.0502,0.0467,0.0484,0.0425,0.0397,0.0385,0.0367,0.0381,0.0383,0.0385,0.0345,0.0361,0.0355,0,0,0,0,0,0.0225,0.0242,0.0278,0.0331,0.0388,0.0419,0.0442,0.0448,0.0502,0.0466,0.0489,0.0441,0.0399,0.0357,0.033,0.0375,0.0365,0.035,0.0382,0.0402,0.0403,0.0356,0,0,0,0,0,0,0.0195,0.0233,0.0258,0.0297,0.0326,0.0365,0.0366,0.0385,0.0357,0.0415,0.0352,0.0462,0.0374,0.0408,0.0334,0.0338,0.0361,0.0363,0.0363,0.0401,0.0402,0.0403,0.0356,0,0,0,0,0]},{"header":{"parameterUnit":"m.s-1","parameterCategory":2,"la1":30.2991,"la2":30.254,"lo1":-89.0895,"lo2":-89.0444,"dy":0.0017,"dx":0.0017,"nx":28,"ny":28,"refTime":"2024-07-14T21:00:00:Z","depth":"4","parameterNumber":3,"parameterNumberName":"V-component_of_CURRENTS"},"data":[0,0,0,0,0,0,0,0,0,0,0,0,0,0,0,0,0,0,0,0,0,0,0,0,0,0,0,0,0,0,0,0,0,0,0,0,0,0,0,0,0,0,0,0,0,0,0,0,0,0,0,0,0,0,0,0,0,0,-0.0305,-0.0305,0,-0.0365,-0.0366,-0.0366,-0.044,-0.0441,-0.0442,-0.0444,-0.0502,-0.0502,-0.0502,0,0,0,0,0,0,0,0,0,0,0,0,0,-0.0296,-0.0296,-0.0304,-0.0305,-0.0306,-0.0365,-0.0366,-0.0366,-0.0439,-0.0441,-0.0443,-0.0444,-0.0501,-0.0502,-0.0502,0,0,0,0,0,0,0,0,0,0,0,0,0,-0.0321,-0.0295,-0.0304,-0.0351,-0.0356,-0.0365,-0.0366,-0.0367,-0.0439,-0.0441,-0.0443,-0.0445,-0.0501,-0.0502,-0.0502,-0.0466,0,0,-0.0504,-0.0504,0,0,0,0,0,0,0,0,-0.0319,-0.0321,-0.0343,-0.0348,-0.0353,-0.0398,-0.0384,-0.04,-0.0439,-0.0406,-0.0444,-0.0446,-0.0466,-0.047,-0.0475,-0.0469,-0.0472,-0.0504,-0.0504,-0.0504,-0.0504,0,0,0,0,0,0,0,-0.0317,-0.0319,-0.0327,-0.0344,-0.035,-0.0384,-0.0389,-0.0388,-0.0423,-0.0409,-0.0415,-0.0423,-0.0469,-0.0474,-0.0477,-0.0472,-0.0504,-0.0504,-0.0505,-0.0505,-0.0537,-0.0538,0,0,0,0,0,0,-0.0309,-0.0317,-0.0325,-0.0329,-0.0343,-0.0383,-0.0388,-0.0381,-0.0423,-0.0432,-0.0422,-0.0427,-0.0472,-0.0476,-0.0479,-0.0512,-0.0504,-0.0505,-0.0505,-0.0537,-0.0537,-0.0538,0,0,0,0,0,0,-0.0308,-0.0308,-0.0322,-0.0327,-0.0331,-0.0381,-0.0371,-0.0381,-0.043,-0.0434,-0.0443,-0.0467,-0.0474,-0.0478,-0.0515,-0.0512,-0.0505,-0.0505,-0.0536,-0.0537,-0.0538,-0.0532,0,0,0,0,0,0,-0.0307,-0.0307,-0.0328,-0.0325,-0.0331,-0.0352,-0.037,-0.0381,-0.0431,-0.0439,-0.0474,-0.0479,-0.0476,-0.0515,-0.0516,-0.0513,-0.0506,-0.0535,-0.0536,-0.0537,-0.0531,-0.0532,-0.0533,0,0,0,0,0,-0.0306,-0.0318,-0.0328,-0.0331,-0.0347,-0.0352,-0.0359,-0.04,-0.0432,-0.0452,-0.0483,-0.0481,-0.0522,-0.0516,-0.0517,-0.0514,-0.0535,-0.0536,-0.0537,-0.0531,-0.0532,-0.0533,0,0,0,0,0,0,-0.0325,-0.0327,-0.0337,-0.035,-0.0363,-0.0366,-0.0398,-0.0421,-0.046,-0.0483,-0.0491,-0.0497,-0.0526,-0.0526,-0.052,-0.0529,-0.0526,-0.0528,-0.0521,-0.0522,-0.0523,-0.0517,-0.0506,0,0,0,0,0,-0.0336,-0.0347,-0.0348,-0.0361,-0.037,-0.0391,-0.0412,-0.0433,-0.0455,-0.0478,-0.0497,-0.0517,-0.0522,-0.0532,-0.054,-0.0545,-0.0541,-0.0545,-0.0546,-0.0546,-0.0544,-0.0538,-0.0538,-0.0542,-0.0542,-0.0542,0,0,-0.0343,-0.035,-0.0357,-0.0368,-0.0383,-0.0388,-0.0409,-0.0443,-0.0455,-0.0474,-0.0514,-0.0527,-0.0528,-0.0535,-0.0547,-0.0541,-0.0545,-0.0548,-0.0548,-0.0545,-0.0539,-0.0539,-0.0538,-0.0543,-0.0543,-0.0543,0,0,-0.0349,-0.0372,-0.038,-0.039,-0.0419,-0.0423,-0.044,-0.0461,-0.0487,-0.0511,-0.0528,-0.0549,-0.056,-0.0555,-0.0552,-0.0565,-0.0554,-0.0568,-0.056,-0.0555,-0.0554,-0.0553,-0.055,-0.0548,-0.0563,-0.0563,-0.0563,0,-0.0368,-0.0364,-0.0386,-0.0393,-0.0404,-0.0439,-0.0442,-0.0463,-0.0497,-0.0509,-0.053,-0.0553,-0.0561,-0.0555,-0.0558,-0.0564,-0.0562,-0.0552,-0.0555,-0.0554,-0.0553,-0.0549,-0.0548,-0.0562,-0.0562,-0.0563,-0.0563,0,-0.0357,-0.0375,-0.0382,-0.0395,-0.0411,-0.0424,-0.0441,-0.047,-0.0503,-0.0515,-0.0542,-0.0554,-0.056,-0.0565,-0.0562,-0.0558,-0.0558,-0.0559,-0.0547,-0.0552,-0.0548,-0.0547,-0.0562,-0.0562,-0.0562,-0.0562,0,0,-0.0345,-0.0369,-0.0377,-0.0383,-0.0415,-0.0418,-0.0442,-0.0456,-0.0471,-0.0509,-0.0519,-0.0532,-0.0548,-0.0546,-0.0551,-0.0549,-0.0542,-0.055,-0.055,-0.0538,-0.0531,-0.0512,-0.0509,-0.0541,-0.0541,-0.0541,-0.0531,0,-0.0335,-0.0342,-0.0358,-0.037,-0.0371,-0.0403,-0.0412,-0.0438,-0.0464,-0.0484,-0.0509,-0.0516,-0.0536,-0.0532,-0.054,-0.0543,-0.0538,-0.0545,-0.0535,-0.0535,-0.0511,-0.0507,-0.054,-0.053,-0.0529,-0.0529,-0.0529,0,-0.0317,-0.0325,-0.0327,-0.0347,-0.0351,-0.0358,-0.038,-0.0391,-0.0424,-0.0442,-0.0465,-0.0488,-0.0497,-0.051,-0.0521,-0.0524,-0.0525,-0.053,-0.053,-0.0513,-0.0514,-0.0525,-0.0527,-0.0527,-0.0527,-0.0527,-0.0527,0,-0.0287,-0.0307,-0.0307,-0.0313,-0.0334,-0.0339,-0.0349,-0.0378,-0.0378,-0.0406,-0.0406,-0.0445,-0.0443,-0.0466,-0.0485,-0.0498,-0.0495,-0.0512,-0.0498,-0.0497,-0.0518,-0.0519,-0.0509,-0.0509,-0.0509,-0.0509,-0.0509,0,-0.0261,-0.0268,-0.0291,-0.0289,-0.0282,-0.0308,-0.0302,-0.0318,-0.0332,-0.0319,-0.0373,-0.0369,-0.0428,-0.0442,-0.0472,-0.0478,-0.048,-0.0493,-0.049,-0.0518,-0.0519,-0.0517,-0.0518,-0.0509,-0.0509,-0.0509,-0.0509,0,-0.023,-0.0248,-0.0247,-0.0264,-0.0265,-0.0259,-0.0257,-0.0249,-0.0265,-0.0247,-0.0246,-0.0298,-0.0317,-0.0373,-0.0403,-0.0438,-0.0457,-0.0452,-0.0473,-0.0472,-0.047,-0.0472,-0.0449,-0.0448,-0.0447,-0.0447,-0.0446,0,-0.0211,-0.0207,-0.0219,-0.0209,-0.0214,-0.0205,-0.0194,-0.0209,-0.0189,-0.0196,-0.0177,-0.0205,-0.024,-0.0282,-0.0348,-0.0405,-0.0412,-0.0427,-0.0462,-0.0463,-0.0463,-0.0465,-0.0467,-0.0445,-0.0445,-0.0445,-0.0445,0,-0.017,-0.0184,-0.018,-0.0155,-0.0144,-0.013,-0.011,-0.009,-0.0093,-0.0104,-0.0106,-0.0156,-0.0182,-0.026,-0.0296,-0.0341,-0.043,-0.0421,-0.0423,-0.0456,-0.0459,-0.0459,-0.0462,-0.0442,-0.0443,-0.0443,-0.0443,0,-0.0142,-0.0133,-0.0126,-0.0102,-0.0081,-0.0059,-0.0062,-0.0042,-0.0033,-0.0039,-0.0038,-0.01,-0.0142,-0.0223,-0.0259,-0.0303,-0.0327,-0.0356,-0.0362,-0.0365,-0.0353,-0.0344,-0.0283,0,0,0,0,0,-0.0106,-0.0092,-0.0069,-0.005,-0.0026,-0.0017,-0.0002,-0.0009,-0.0005,0.0007,-0.0015,-0.0042,-0.0126,-0.0178,-0.0215,-0.0252,-0.0335,-0.0299,-0.037,-0.043,-0.0432,-0.0431,0,0,0,0,0,0,-0.0084,-0.0062,-0.0057,-0.0002,0.002,0.0041,0.0046,0.0037,0.004,0.003,-0.0015,-0.0046,-0.0128,-0.009,-0.0211,-0.0228,-0.0279,-0.0341,-0.0342,-0.0428,-0.043,-0.0433,-0.0432,0,0,0,0,0]}]]